World > North America > United States > Missouri > Winthrop  

Winthrop, MO Hourly Weather Updates

Feedback E-mail the Weather

Quick WX

Winthrop, MO Weather Maps

°F °C°F °C
Winthrop Weather Map
UTC Time: 2/23/2024, 04:25
Your Time:

Winthrop, MO Regional Weather

Expires:202402230500;;539977
ASUS43 KEAX 230415
RWREAX

WEATHER ROUNDUP FOR EASTERN KANSAS AND NORTHWEST MISSOURI
NATIONAL WEATHER SERVICE KANSAS CITY/PLEASANT HILL MO
1000 PM CST THU FEB 22 2024


MOZ001>008-011>017-020>025-030>033-038>040-044>046-053-054-230500-
...NORTHERN AND CENTRAL MISSOURI...
  
CITY           SKY/WX    TMP DP  RH WIND       PRES   REMARKS
ST. JOSEPH     CLEAR     48  32  53 NW9       29.92R                  
MOSBY          CLEAR     54  32  43 NW10      29.89R                  
HARRISONVILLE  CLEAR     52  36  54 N7        29.90R                  
WHITEMAN AFB   PTCLDY    55  36  49 NW10      29.83R                  
CLINTON        CLEAR     48  34  57 W5        29.85R                  
SEDALIA        CLEAR     53  35  50 NW12      29.84R                  
MARSHALL       CLEAR     50  36  57 NW8       29.85R                  
CHILLICOTHE      N/A     53  35  50 N9        29.87R                  
MOBERLY        CLEAR     46  30  53 NW9       29.82R                  
KIRKSVILLE     CLEAR     51  32  48 NW12      29.83R                  

$$


SKY/WX - Weather  TMP - Temperature  DP - Dew Point  RH - Humidity
WIND - Wind Direction/Speed PRES - Barometric Pressure VSB - Visibility
WCI - Wind Chill Index E13G22 Wind - East Wind 13 mph/Gusts of 22 mph

Trending Headlines

Trending Entertainment Headlines

Winthrop Radar Loop

Use the map search tool if you want to place a location marker on the radar map...

Winthrop Quick Facts

National Two Day Weather Forecast


E-mail the Winthrop Weather Forecast

Voice your opinion or tell us about page issues...